Location: Arbon
(43.0005°N, 0.7472°E)
Time: 05:24:07
(UTC+00:00)

Vanguard 2 Rocket - Pass Details

Date: 22 June 2021
Orbit: 554 x 3325 km, 32.9° (Epoch: 26 July)

Event Time Altitude Azimuth Distance (km) Brightness Sun altitude
Rises 23:32:11 0° 277° (W) 6,974 11.6 -23.3°
Reaches altitude 10° 23:37:52 10° 270° (W) 5,628 11.0 -23.4°
Maximum altitude 23:51:03 34° 214° (SW) 3,005 9.1 -23.5°
Enters shadow 23:52:56 32° 198° (SSW) 2,902 8.9 -23.6°
